Weather in Odawara

Japan     35°15′06″N   139°06′42″E
temp.,
°C
wind,
m/s
gust,
m/s
humid.,
%
clouds,
%
prec.,
mm/h
press.,
hPa
HPBL,
m
13 june, sun
sun1300:00+17wsw239390 0.0 1016162
03:00+17w2395100 0.0 101591
06:00+18wsw228999 0.0 1015208
09:00+21sw2372100 0.0 1014773
12:00+21sw3372100 0.0 1013737
15:00+20wsw4577100 0.1 1011710
18:00+18wsw3473100 0.1 1010248
21:00+17wsw2379100 0.6 1011152
14 june, mon
mon1400:00+17w2287100 0.6 101069
03:00+17w1288100 0.8 100953
06:00+18nne1183100 0.2 100977
09:00+22s226949 0.4 1009809
12:00+21se2172100 0.7 1008551
15:00+22sse1163100 0.9 1007961
18:00+20sse1176100 0.3 1007126
21:00+17wnw11795 0.3 100816
15 june, tue
tue1500:00+16w1180100 0.0 100813
03:00+16nw118595 0.0 100714
06:00+18nne11772 0.0 100873
09:00+23ese215786 0.0 1008940
12:00+24se3256100 0.0 10071461
15:00+22ssw2270100 0.1 1007814
18:00+20ssw1286100 0.2 1008355
21:00+18sse0193100 0.3 1010113
16 june, wed
wed1600:00+18e1195100 0.1 100967
03:00+17e1197100 0.6 100939
06:00+18e1295100 0.5 1010169
09:00+18ese2392100 1.6 1010397
12:00+21ese337073 1.1 1010903
15:00+21ese2258100 1.3 1009678
18:00+19ene117084 0.1 1010131
21:00+18ne117770 0.1 101167
17 june, thu
thu1700:00+17nne1179100 0.0 101053
03:00+16nne118588 0.0 100921
06:00+17ne1281100 0.0 1010138
09:00+22ese216465 0.0 10091076
12:00+23ese2262100 0.1 10081174
15:00+23s235792 0.3 10071269
18:00+20s2375100 0.1 1007499
21:00+18sw1188100 0.1 100880